| time (UTC) | temp F | wind direction | speed MPH | gust MPH | rain 1hr in | rain 24hr in | rain mn in | humidity % | barometer mb |
| 20260905093816 | 83 | 205 | 7.0 | 9.0 | 0.00 | 0.00 | 0.00 | 82 | 1013.4 |
| 20260905092819 | 83 | 188 | 5.0 | 8.0 | 0.00 | 0.00 | 0.00 | 82 | 1013.4 |
| 20260905091748 | 83 | 192 | 6.0 | 10.0 | 0.00 | 0.00 | 0.00 | 82 | 1013.3 |
| 20260905090720 | 83 | 0 | 5.0 | 9.0 | 0.00 | 0.00 | 0.00 | 82 | 1013.4 |
| 20260905084603 | 83 | 196 | 6.0 | 10.0 | 0.00 | 0.00 | 0.00 | 82 | 1013.2 |
| 20260905083529 | 83 | 205 | 7.0 | 10.0 | 0.00 | 0.00 | 0.00 | 82 | 1013.2 |
| 20260905082504 | 83 | 190 | 6.0 | 8.0 | 0.00 | 0.00 | 0.00 | 82 | 1013.3 |
| 20260905081435 | 83 | 202 | 6.0 | 8.0 | 0.00 | 0.00 | 0.00 | 82 | 1013.3 |
| 20260905080456 | 83 | 180 | 4.0 | 7.0 | 0.00 | 0.00 | 0.00 | 82 | 1013.4 |
| 20260905075459 | 83 | 196 | 5.0 | 7.0 | 0.00 | 0.00 | 0.00 | 82 | 1013.4 |
| 20260905073350 | 83 | 209 | 4.0 | 7.0 | 0.00 | 0.00 | 0.00 | 81 | 1013.4 |
| 20260905071306 | 83 | 209 | 7.0 | 9.0 | 0.00 | 0.00 | 0.00 | 81 | 1013.4 |
| 20260905070308 | 84 | 187 | 7.0 | 10.0 | 0.00 | 0.00 | 0.00 | 81 | 1013.3 |
| 20260905065234 | 84 | 211 | 8.0 | 10.0 | 0.00 | 0.00 | 0.00 | 80 | 1013.5 |
| 20260905064247 | 84 | 197 | 8.0 | 10.0 | 0.00 | 0.00 | 0.00 | 81 | 1013.6 |
| 20260905063236 | 84 | 201 | 9.0 | 12.0 | 0.00 | 0.00 | 0.00 | 80 | 1013.6 |
| 20260905061052 | 85 | 183 | 8.0 | 12.0 | 0.00 | 0.00 | 0.00 | 80 | 1013.8 |
| 20260905060037 | 85 | 155 | 7.0 | 12.0 | 0.00 | 0.00 | 0.00 | 79 | 1013.8 |
| 20260905055044 | 85 | 156 | 7.0 | 10.0 | 0.00 | 0.00 | 0.00 | 79 | 1014.0 |
| 20260905052942 | 85 | 157 | 7.0 | 11.0 | 0.00 | 0.00 | 0.00 | 79 | 1014.4 |
| 20260905051908 | 85 | 175 | 8.0 | 11.0 | 0.00 | 0.00 | 0.00 | 79 | 1014.4 |
| 20260905045725 | 85 | 194 | 6.0 | 9.0 | 0.00 | 0.00 | 0.00 | 79 | 1014.7 |
| 20260905044745 | 85 | 189 | 6.0 | 9.0 | 0.00 | 0.00 | 0.00 | 79 | 1014.8 |
| 20260905043802 | 85 | 194 | 4.0 | 9.0 | 0.00 | 0.00 | 0.00 | 79 | 1014.9 |
| 20260905042757 | 85 | 191 | 2.0 | 5.0 | 0.00 | 0.00 | 0.00 | 81 | 1015.0 |
| 20260905041802 | 85 | 201 | 2.0 | 5.0 | 0.00 | 0.00 | 0.00 | 81 | 1015.0 |
| 20260905040821 | 84 | 218 | 2.0 | 5.0 | 0.00 | 0.00 | 0.00 | 81 | 1015.2 |
| 20260905035752 | 84 | 225 | 3.0 | 4.0 | 0.00 | 0.00 | 0.00 | 81 | 1015.0 |
| 20260905034752 | 84 | 242 | 3.0 | 4.0 | 0.00 | 0.00 | 0.00 | 81 | 1014.9 |
| 20260905033721 | 84 | 243 | 3.0 | 4.0 | 0.00 | 0.00 | 0.00 | 80 | 1014.9 |
| 20260905031544 | 85 | 246 | 3.0 | 6.0 | 0.00 | 0.00 | 0.00 | 79 | 1015.2 |
| 20260905030531 | 84 | 257 | 4.0 | 6.0 | 0.00 | 0.00 | 0.00 | 79 | 1015.3 |
| 20260905025459 | 85 | 240 | 5.0 | 8.0 | 0.00 | 0.00 | 0.00 | 78 | 1015.2 |
| 20260905024452 | 85 | 217 | 7.0 | 8.0 | 0.00 | 0.00 | 0.00 | 78 | 1015.0 |
| 20260905023506 | 85 | 212 | 6.0 | 9.0 | 0.00 | 0.00 | 0.00 | 78 | 1015.0 |
| 20260905022512 | 85 | 211 | 7.0 | 9.0 | 0.00 | 0.00 | 0.00 | 78 | 1015.0 |
| 20260905021515 | 86 | 189 | 6.0 | 9.0 | 0.00 | 0.00 | 0.00 | 78 | 1014.9 |
| 20260905020458 | 86 | 188 | 6.0 | 9.0 | 0.00 | 0.00 | 0.00 | 77 | 1014.9 |
| 20260905015444 | 86 | 207 | 6.0 | 9.0 | 0.00 | 0.00 | 0.00 | 78 | 1014.8 |
| 20260905014423 | 86 | 210 | 8.0 | 11.0 | 0.00 | 0.00 | 0.00 | 77 | 1014.7 |
| 20260905013414 | 86 | 202 | 8.0 | 11.0 | 0.00 | 0.00 | 0.00 | 75 | 1014.8 |
| 20260905012415 | 86 | 190 | 8.0 | 11.0 | 0.00 | 0.00 | 0.00 | 78 | 1014.8 |
| 20260905011350 | 86 | 181 | 9.0 | 13.0 | 0.00 | 0.00 | 0.00 | 80 | 1014.7 |
| 20260905010320 | 87 | 181 | 6.0 | 13.0 | 0.00 | 0.00 | 0.00 | 82 | 1014.7 |
| 20260905005325 | 86 | 0 | 3.0 | 7.0 | 0.00 | 0.00 | 0.00 | 83 | 1014.5 |
| 20260905004305 | 86 | 0 | 2.0 | 5.0 | 0.00 | 0.00 | 0.00 | 83 | 1014.6 |
| 20260905003322 | 86 | 0 | 3.0 | 7.0 | 0.00 | 0.00 | 0.00 | 82 | 1014.5 |
| 20260905001210 | 86 | 180 | 4.0 | 9.0 | 0.00 | 0.00 | 0.00 | 82 | 1014.3 |
| 20260905000218 | 86 | 145 | 6.0 | 9.0 | 0.00 | 0.00 | 0.00 | 82 | 1014.3 |
| 20260904235159 | 86 | 0 | 4.0 | 10.0 | 0.00 | 0.00 | 0.00 | 81 | 1014.4 |
| 20260904234123 | 86 | 0 | 5.0 | 10.0 | 0.00 | 0.00 | 0.00 | 81 | 1014.3 |
| 20260904233100 | 86 | 0 | 5.0 | 10.0 | 0.00 | 0.00 | 0.00 | 81 | 1014.3 |
| 20260904232041 | 86 | 94 | 5.0 | 9.0 | 0.00 | 0.00 | 0.00 | 81 | 1014.1 |
| 20260904231007 | 86 | 148 | 5.0 | 10.0 | 0.00 | 0.00 | 0.00 | 83 | 1014.1 |
| 20260904230004 | 86 | 0 | 5.0 | 9.0 | 0.00 | 0.00 | 0.00 | 82 | 1013.9 |
| 20260904223906 | 86 | 134 | 5.0 | 11.0 | 0.00 | 0.00 | 0.00 | 83 | 1014.1 |
| 20260904220526 | 87 | 0 | 8.0 | 14.0 | 0.00 | 0.00 | 0.00 | 82 | 1013.1 |
| 20260904215514 | 87 | 0 | 8.0 | 16.0 | 0.00 | 0.00 | 0.00 | 82 | 1013.1 |
| 20260904213347 | 86 | 0 | 9.0 | 15.0 | 0.00 | 0.00 | 0.00 | 82 | 1013.4 |
| 20260904211219 | 87 | 169 | 7.0 | 12.0 | 0.00 | 0.00 | 0.00 | 81 | 1013.8 |
| 20260904210233 | 87 | 0 | 7.0 | 14.0 | 0.00 | 0.00 | 0.00 | 82 | 1013.7 |
| 20260904205230 | 86 | 109 | 8.0 | 16.0 | 0.00 | 0.00 | 0.00 | 82 | 1013.7 |
| 20260904204217 | 86 | 0 | 8.0 | 16.0 | 0.00 | 0.00 | 0.00 | 81 | 1013.6 |
| 20260904203214 | 87 | 136 | 7.0 | 13.0 | 0.00 | 0.00 | 0.00 | 81 | 1013.6 |
| 20260904202216 | 86 | 144 | 8.0 | 14.0 | 0.00 | 0.00 | 0.00 | 81 | 1013.6 |
| 20260904201203 | 87 | 94 | 8.0 | 14.0 | 0.00 | 0.00 | 0.00 | 81 | 1013.7 |
| 20260904200209 | 86 | 137 | 8.0 | 13.0 | 0.00 | 0.00 | 0.00 | 81 | 1013.9 |
| 20260904195145 | 86 | 0 | 8.0 | 14.0 | 0.00 | 0.00 | 0.00 | 82 | 1014.2 |
| 20260904194125 | 86 | 0 | 7.0 | 15.0 | 0.00 | 0.00 | 0.00 | 82 | 1014.3 |
| 20260904191932 | 87 | 107 | 7.0 | 14.0 | 0.00 | 0.00 | 0.00 | 81 | 1014.2 |
| 20260904185839 | 88 | 0 | 7.0 | 13.0 | 0.00 | 0.00 | 0.00 | 80 | 1014.5 |
| 20260904184839 | 87 | 108 | 7.0 | 12.0 | 0.00 | 0.00 | 0.00 | 81 | 1014.6 |
| 20260904183830 | 87 | 126 | 7.0 | 12.0 | 0.00 | 0.00 | 0.00 | 81 | 1014.7 |
| 20260904182827 | 87 | 60 | 7.0 | 15.0 | 0.00 | 0.00 | 0.00 | 81 | 1015.1 |
| 20260904181815 | 87 | 96 | 6.0 | 12.0 | 0.00 | 0.00 | 0.00 | 80 | 1014.9 |
| 20260904180814 | 88 | 163 | 6.0 | 13.0 | 0.00 | 0.00 | 0.00 | 80 | 1015.2 |
| 20260904175758 | 87 | 96 | 7.0 | 13.0 | 0.00 | 0.00 | 0.00 | 80 | 1015.3 |
| 20260904172533 | 87 | 114 | 8.0 | 13.0 | 0.00 | 0.00 | 0.00 | 80 | 1015.5 |
| 20260904171545 | 88 | 143 | 6.0 | 11.0 | 0.00 | 0.00 | 0.00 | 78 | 1015.6 |
| 20260904165430 | 88 | 131 | 5.0 | 10.0 | 0.00 | 0.00 | 0.00 | 79 | 1015.8 |
| 20260904164436 | 88 | 119 | 3.0 | 8.0 | 0.00 | 0.00 | 0.00 | 75 | 1015.8 |
| 20260904163438 | 89 | 85 | 3.0 | 8.0 | 0.00 | 0.00 | 0.00 | 76 | 1015.8 |
| 20260904162433 | 89 | 160 | 4.0 | 8.0 | 0.00 | 0.00 | 0.00 | 76 | 1015.8 |
| 20260904161406 | 89 | 88 | 4.0 | 8.0 | 0.00 | 0.00 | 0.00 | 77 | 1016.0 |
| 20260904155207 | 89 | 121 | 4.0 | 9.0 | 0.00 | 0.00 | 0.00 | 74 | 1016.4 |
| 20260904154209 | 89 | 184 | 6.0 | 11.0 | 0.00 | 0.00 | 0.00 | 73 | 1016.4 |
| 20260904152016 | 88 | 195 | 8.0 | 11.0 | 0.00 | 0.00 | 0.00 | 71 | 1016.2 |
| 20260904150952 | 88 | 212 | 8.0 | 11.0 | 0.00 | 0.00 | 0.00 | 72 | 1016.1 |
| 20260904144833 | 88 | 195 | 8.0 | 10.0 | 0.00 | 0.00 | 0.00 | 75 | 1016.0 |
| 20260904143843 | 87 | 200 | 6.0 | 10.0 | 0.00 | 0.00 | 0.00 | 75 | 1016.0 |
| 20260904142819 | 87 | 193 | 5.0 | 8.0 | 0.00 | 0.00 | 0.00 | 77 | 1016.0 |
| 20260904141812 | 87 | 189 | 6.0 | 8.0 | 0.00 | 0.00 | 0.00 | 77 | 1015.8 |
| 20260904140756 | 86 | 217 | 6.0 | 11.0 | 0.00 | 0.00 | 0.00 | 78 | 1015.7 |
| 20260904135756 | 86 | 215 | 8.0 | 11.0 | 0.00 | 0.00 | 0.00 | 78 | 1015.6 |
| 20260904134741 | 86 | 215 | 7.0 | 10.0 | 0.00 | 0.00 | 0.00 | 79 | 1015.5 |
| 20260904133718 | 85 | 198 | 6.0 | 8.0 | 0.00 | 0.00 | 0.00 | 79 | 1015.4 |
| 20260904132738 | 85 | 202 | 5.0 | 8.0 | 0.00 | 0.00 | 0.00 | 80 | 1015.4 |
| 20260904131711 | 85 | 186 | 2.0 | 4.0 | 0.00 | 0.00 | 0.00 | 82 | 1015.4 |
| 20260904125540 | 84 | 184 | 3.0 | 5.0 | 0.00 | 0.00 | 0.00 | 82 | 1015.4 |
| 20260904124548 | 83 | 167 | 3.0 | 5.0 | 0.00 | 0.00 | 0.00 | 83 | 1015.3 |
| 20260904123547 | 83 | 186 | 3.0 | 5.0 | 0.00 | 0.00 | 0.00 | 84 | 1015.3 |
| 20260904122555 | 83 | 182 | 4.0 | 5.0 | 0.00 | 0.00 | 0.00 | 84 | 1015.2 |
| 20260904121557 | 83 | 200 | 4.0 | 8.0 | 0.00 | 0.00 | 0.00 | 84 | 1015.2 |
| 20260904115426 | 83 | 192 | 5.0 | 7.0 | 0.00 | 0.00 | 0.00 | 84 | 1014.9 |
| 20260904114411 | 83 | 188 | 6.0 | 8.0 | 0.00 | 0.00 | 0.00 | 84 | 1014.8 |
| 20260904113354 | 83 | 191 | 5.0 | 9.0 | 0.00 | 0.00 | 0.00 | 83 | 1014.6 |
| 20260904112333 | 83 | 185 | 7.0 | 10.0 | 0.00 | 0.00 | 0.00 | 83 | 1014.5 |
| 20260904111322 | 84 | 190 | 7.0 | 10.0 | 0.00 | 0.00 | 0.00 | 82 | 1014.4 |
| 20260904103927 | 84 | 155 | 4.0 | 8.0 | 0.00 | 0.00 | 0.00 | 83 | 1014.0 |
| 20260904102921 | 84 | 144 | 3.0 | 7.0 | 0.00 | 0.00 | 0.00 | 83 | 1014.2 |
| 20260904100817 | 84 | 158 | 4.0 | 7.0 | 0.00 | 0.00 | 0.00 | 83 | 1014.0 |
| 20260904095806 | 84 | 155 | 5.0 | 9.0 | 0.00 | 0.00 | 0.00 | 83 | 1014.0 |
| 20260904094729 | 84 | 175 | 6.0 | 10.0 | 0.00 | 0.00 | 0.00 | 82 | 1013.9 |